TimeCST,TemperatureF,Dew PointF,Humidity,Sea Level PressureIn,VisibilityMPH,Wind Direction,Wind SpeedMPH,Gust SpeedMPH,PrecipitationIn,Events,Conditions,WindDirDegrees,DateUTC
12:15 AM,12.2,8.6,85,30.39,10.0,Calm,Calm,-,N/A,,Unknown,0,2013-01-14 06:15:00
12:35 AM,10.4,6.8,85,30.40,10.0,Calm,Calm,-,N/A,,Unknown,0,2013-01-14 06:35:00
12:55 AM,12.2,8.6,85,30.40,10.0,Calm,Calm,-,N/A,,Unknown,0,2013-01-14 06:55:00
1:15 AM,12.2,10.4,92,30.42,10.0,Calm,Calm,-,N/A,,Unknown,0,2013-01-14 07:15:00
1:35 AM,10.4,6.8,85,30.43,10.0,Calm,Calm,-,N/A,,Unknown,0,2013-01-14 07:35:00
1:55 AM,10.4,6.8,85,30.43,10.0,Calm,Calm,-,N/A,,Unknown,0,2013-01-14 07:55:00
2:15 AM,10.4,8.6,92,30.43,10.0,Calm,Calm,-,N/A,,Unknown,0,2013-01-14 08:15:00
2:35 AM,10.4,6.8,85,30.44,10.0,Calm,Calm,-,N/A,,Unknown,0,2013-01-14 08:35:00
2:55 AM,8.6,5.0,85,30.43,10.0,Calm,Calm,-,N/A,,Unknown,0,2013-01-14 08:55:00
3:15 AM,10.4,3.2,73,30.43,10.0,Calm,Calm,-,N/A,,Unknown,0,2013-01-14 09:15:00
3:35 AM,10.4,8.6,92,30.43,10.0,Calm,Calm,-,N/A,,Unknown,0,2013-01-14 09:35:00
4:15 AM,8.6,3.2,79,30.42,8.0,Calm,Calm,-,N/A,,Unknown,0,2013-01-14 10:15:00
4:35 AM,10.4,8.6,92,30.41,10.0,Calm,Calm,-,N/A,,Unknown,0,2013-01-14 10:35:00
4:55 AM,10.4,3.2,73,30.41,10.0,Calm,Calm,-,N/A,,Unknown,0,2013-01-14 10:55:00
5:15 AM,8.6,3.2,79,30.41,10.0,Calm,Calm,-,N/A,,Unknown,0,2013-01-14 11:15:00
5:35 AM,10.4,3.2,73,30.41,10.0,Calm,Calm,-,N/A,,Unknown,0,2013-01-14 11:35:00
6:15 AM,12.2,6.8,79,30.40,10.0,North,-9999.0,-,N/A,,Unknown,0,2013-01-14 12:15:00
6:35 AM,12.2,6.8,79,30.40,10.0,North,-9999.0,-,N/A,,Unknown,0,2013-01-14 12:35:00
6:55 AM,12.2,6.8,79,30.43,10.0,North,-9999.0,-,N/A,,Unknown,0,2013-01-14 12:55:00
7:15 AM,12.2,6.8,79,30.43,10.0,North,-9999.0,-,N/A,,Unknown,0,2013-01-14 13:15:00
7:35 AM,12.2,8.6,85,30.43,10.0,North,-9999.0,-,N/A,,Unknown,0,2013-01-14 13:35:00
7:55 AM,12.2,8.6,85,30.44,10.0,North,-9999.0,-,N/A,,Unknown,0,2013-01-14 13:55:00
8:15 AM,14.0,10.4,86,30.46,10.0,North,-9999.0,-,N/A,,Unknown,0,2013-01-14 14:15:00
8:35 AM,15.8,8.6,73,30.47,10.0,North,-9999.0,-,N/A,,Unknown,0,2013-01-14 14:35:00
8:55 AM,15.8,10.4,79,30.48,10.0,North,-9999.0,-,N/A,,Unknown,0,2013-01-14 14:55:00
9:15 AM,15.8,8.6,73,30.47,10.0,North,-9999.0,-,N/A,,Unknown,0,2013-01-14 15:15:00
9:35 AM,17.6,10.4,73,30.50,10.0,North,-9999.0,-,N/A,,Unknown,0,2013-01-14 15:35:00
9:55 AM,17.6,10.4,73,30.49,10.0,North,-9999.0,-,N/A,,Unknown,0,2013-01-14 15:55:00
10:15 AM,17.6,10.4,73,30.50,10.0,North,-9999.0,-,N/A,,Unknown,0,2013-01-14 16:15:00
10:35 AM,19.4,12.2,74,30.49,10.0,North,-9999.0,-,N/A,,Unknown,0,2013-01-14 16:35:00
10:55 AM,19.4,12.2,74,30.50,10.0,North,-9999.0,-,N/A,,Unknown,0,2013-01-14 16:55:00
11:15 AM,21.2,12.2,68,30.50,10.0,North,-9999.0,-,N/A,,Unknown,0,2013-01-14 17:15:00
11:35 AM,21.2,12.2,68,30.50,10.0,North,-9999.0,-,N/A,,Unknown,0,2013-01-14 17:35:00
11:55 AM,21.2,14.0,74,30.50,10.0,North,-9999.0,-,N/A,,Unknown,0,2013-01-14 17:55:00
12:15 PM,21.2,14.0,74,30.48,10.0,North,-9999.0,-,N/A,,Unknown,0,2013-01-14 18:15:00
12:35 PM,23.0,14.0,68,30.46,10.0,North,-9999.0,-,N/A,,Unknown,0,2013-01-14 18:35:00
12:55 PM,23.0,14.0,68,30.45,10.0,North,-9999.0,-,N/A,,Unknown,0,2013-01-14 18:55:00
1:15 PM,23.0,15.8,74,30.44,10.0,North,-9999.0,-,N/A,,Unknown,0,2013-01-14 19:15:00
1:35 PM,23.0,15.8,74,30.44,10.0,North,-9999.0,-,N/A,,Unknown,0,2013-01-14 19:35:00
1:55 PM,24.8,15.8,69,30.43,10.0,North,-9999.0,-,N/A,,Unknown,0,2013-01-14 19:55:00
2:15 PM,24.8,15.8,69,30.43,10.0,North,-9999.0,-,N/A,,Unknown,0,2013-01-14 20:15:00
2:35 PM,24.8,17.6,74,30.43,10.0,North,-9999.0,-,N/A,,Unknown,0,2013-01-14 20:35:00
2:55 PM,24.8,15.8,69,30.43,10.0,North,-9999.0,-,N/A,,Unknown,0,2013-01-14 20:55:00
3:15 PM,26.6,17.6,69,30.43,10.0,North,-9999.0,-,N/A,,Unknown,0,2013-01-14 21:15:00
3:35 PM,26.6,17.6,69,30.42,10.0,North,-9999.0,-,N/A,,Unknown,0,2013-01-14 21:35:00
3:55 PM,26.6,17.6,69,30.42,10.0,North,-9999.0,-,N/A,,Unknown,0,2013-01-14 21:55:00
4:15 PM,26.6,17.6,69,30.42,10.0,North,-9999.0,-,N/A,,Unknown,0,2013-01-14 22:15:00
4:35 PM,24.8,17.6,74,30.42,10.0,North,-9999.0,-,N/A,,Unknown,0,2013-01-14 22:35:00
4:55 PM,24.8,17.6,74,30.42,10.0,North,-9999.0,-,N/A,,Unknown,0,2013-01-14 22:55:00
5:15 PM,23.0,17.6,80,30.42,10.0,North,-9999.0,-,N/A,,Unknown,0,2013-01-14 23:15:00
5:35 PM,21.2,17.6,86,30.42,10.0,North,-9999.0,-,N/A,,Unknown,0,2013-01-14 23:35:00
5:55 PM,21.2,15.8,80,30.41,10.0,North,-9999.0,-,N/A,,Unknown,0,2013-01-14 23:55:00
6:15 PM,21.2,17.6,86,30.42,10.0,North,-9999.0,-,N/A,,Unknown,0,2013-01-15 00:15:00
6:35 PM,19.4,15.8,86,30.41,10.0,North,-9999.0,-,N/A,,Unknown,0,2013-01-15 00:35:00
6:55 PM,17.6,15.8,93,30.41,10.0,North,-9999.0,-,N/A,,Unknown,0,2013-01-15 00:55:00
7:15 PM,17.6,15.8,93,30.41,10.0,North,-9999.0,-,N/A,,Unknown,0,2013-01-15 01:15:00
7:35 PM,17.6,14.0,86,30.41,10.0,North,-9999.0,-,N/A,,Unknown,0,2013-01-15 01:35:00
7:55 PM,17.6,15.8,93,30.40,10.0,North,-9999.0,-,N/A,,Unknown,0,2013-01-15 01:55:00
8:15 PM,19.4,15.8,86,30.40,10.0,North,-9999.0,-,N/A,,Unknown,0,2013-01-15 02:15:00
8:35 PM,19.4,12.2,74,30.41,10.0,North,-9999.0,-,N/A,,Unknown,0,2013-01-15 02:35:00
8:55 PM,17.6,14.0,86,30.40,10.0,North,-9999.0,-,N/A,,Unknown,0,2013-01-15 02:55:00
9:15 PM,19.4,15.8,86,30.40,10.0,North,-9999.0,-,N/A,,Unknown,0,2013-01-15 03:15:00
9:35 PM,17.6,14.0,86,30.40,10.0,North,-9999.0,-,N/A,,Unknown,0,2013-01-15 03:35:00
9:55 PM,17.6,14.0,86,30.40,10.0,North,-9999.0,-,N/A,,Unknown,0,2013-01-15 03:55:00
10:15 PM,17.6,14.0,86,30.40,10.0,North,-9999.0,-,N/A,,Unknown,0,2013-01-15 04:15:00
10:35 PM,17.6,15.8,93,30.40,10.0,North,-9999.0,-,N/A,,Unknown,0,2013-01-15 04:35:00
10:55 PM,14.0,10.4,86,30.41,10.0,North,-9999.0,-,N/A,,Unknown,0,2013-01-15 04:55:00
11:15 PM,15.8,12.2,86,30.41,10.0,North,-9999.0,-,N/A,,Unknown,0,2013-01-15 05:15:00
11:35 PM,15.8,12.2,86,30.41,10.0,North,-9999.0,-,N/A,,Unknown,0,2013-01-15 05:35:00
11:55 PM,15.8,12.2,86,30.41,10.0,North,-9999.0,-,N/A,,Unknown,0,2013-01-15 05:55:00